#timestamp,LO_Frequency,Hit,Temp,Hum 
1478520015.7,286047003.8,N,0.0,0.0
1478520035.5,286047003.7,N,0.0,0.0
1478520055.4,286047004.7,N,0.0,0.0
1478520075.2,286047003.0,N,0.0,0.0
1478520095.0,286047003.2,N,0.0,0.0
1478520095.9,286047003.2,N,0.0,0.0
1478520115.8,286047003.1,N,0.0,0.0
1478520135.6,286047003.0,N,0.0,0.0
1478520155.4,286047001.7,N,0.0,0.0
1478520175.3,286047001.8,N,0.0,0.0
1478520195.1,286047003.6,N,0.0,0.0
1478520215.8,286047003.8,N,0.0,0.0
1478520235.7,286047001.7,N,0.0,0.0
1478520255.5,286047004.0,N,0.0,0.0
1478520275.4,286047005.9,N,0.0,0.0
1478520295.2,286047004.1,N,0.0,0.0
1478520315.0,286047001.9,N,0.0,0.0
1478520315.9,286047001.9,N,0.0,0.0
1478520335.8,286047001.9,N,0.0,0.0
1478520355.6,286047004.1,N,0.0,0.0
1478520375.4,286047003.1,N,0.0,0.0
1478520395.3,286047003.1,N,0.0,0.0
1478520415.1,286047003.2,N,0.0,0.0
1478520435.8,286047004.1,N,0.0,0.0
1478520455.7,286047003.9,N,0.0,0.0
1478520475.5,286047001.5,N,0.0,0.0
1478520495.4,286047001.7,N,0.0,0.0
1478520515.2,286047003.6,N,0.0,0.0
1478520535.0,286047006.0,N,0.0,0.0
1478520535.9,286047006.0,N,0.0,0.0
1478520555.8,286047003.3,N,0.0,0.0
1478520575.6,286047003.1,N,0.0,0.0
1478520595.4,286047001.3,N,0.0,0.0
1478520615.3,286047001.9,N,0.0,0.0
1478520635.1,286047001.5,N,0.0,0.0
1478520655.9,286047001.4,N,0.0,0.0
1478520675.7,286047003.4,N,0.0,0.0
1478520695.5,286047004.8,N,0.0,0.0
1478520715.4,286047002.9,N,0.0,0.0
1478520735.2,286047002.9,N,0.0,0.0
1478520755.0,286047005.4,N,0.0,0.0
1478520755.9,286047005.4,N,0.0,0.0
1478520775.8,286047005.5,N,0.0,0.0
1478520795.6,286047003.7,N,0.0,0.0
1478520815.4,286047004.2,N,0.0,0.0
1478520835.3,286047005.9,N,0.0,0.0
1478520855.1,286047001.7,N,0.0,0.0
1478520875.8,286047004.3,N,0.0,0.0
1478520895.7,286047001.5,N,0.0,0.0
1478520915.5,286047002.5,N,0.0,0.0
1478520935.4,286047002.6,N,0.0,0.0
1478520955.2,286047001.4,N,0.0,0.0
1478520975.0,286047001.5,N,0.0,0.0
1478520975.9,286047001.5,N,0.0,0.0
1478520995.8,286047006.0,N,0.0,0.0
1478521015.6,286047002.9,N,0.0,0.0
1478521035.4,286047004.4,N,0.0,0.0
1478521055.3,286047003.8,N,0.0,0.0
1478521075.1,286047004.1,N,0.0,0.0
1478521095.8,286047003.5,N,0.0,0.0
1478521115.7,286047003.6,N,0.0,0.0
1478521135.5,286047004.1,N,0.0,0.0
1478521155.4,286047003.7,N,0.0,0.0
1478521175.2,286047001.4,N,0.0,0.0
1478521195.0,286047003.1,N,0.0,0.0
1478521195.9,286047003.1,N,0.0,0.0
1478521215.8,286047004.1,N,0.0,0.0
1478521235.6,286047001.4,N,0.0,0.0
1478521255.4,286047002.8,N,0.0,0.0
1478521275.3,286047000.1,N,0.0,0.0
1478521295.1,286047002.3,N,0.0,0.0
1478521315.8,286047002.3,N,0.0,0.0
1478521335.7,286047002.5,N,0.0,0.0
1478521355.5,286047003.4,N,0.0,0.0
1478521375.4,286047003.6,N,0.0,0.0
1478521395.2,286047004.4,N,0.0,0.0
1478521415.0,286047003.9,N,0.0,0.0
1478521415.9,286047003.9,N,0.0,0.0
1478521435.8,286047003.1,N,0.0,0.0
1478521455.6,286047005.9,N,0.0,0.0
1478521475.4,286047004.0,N,0.0,0.0
1478521495.3,286047005.4,N,0.0,0.0
1478521515.1,286047005.3,N,0.0,0.0
1478521535.8,286047004.1,N,0.0,0.0
1478521555.7,286047000.8,N,0.0,0.0
1478521575.5,286047005.9,N,0.0,0.0
1478521595.4,286047004.4,N,0.0,0.0
1478521615.2,286046999.8,N,0.0,0.0
1478521635.0,286047001.4,N,0.0,0.0
1478521635.9,286047001.4,N,0.0,0.0
1478521655.8,286047002.5,N,0.0,0.0
1478521675.6,286047002.4,N,0.0,0.0
1478521695.4,286047000.1,N,0.0,0.0
1478521715.3,286047002.7,N,0.0,0.0
1478521735.1,286047002.0,N,0.0,0.0
1478521755.9,286047001.2,N,0.0,0.0
1478521775.7,286047000.3,N,0.0,0.0
1478521795.5,286047002.2,N,0.0,0.0
1478521815.4,286047002.6,N,0.0,0.0
1478521835.2,286047008.8,N,0.0,0.0
1478521855.0,286047005.6,N,0.0,0.0
1478521855.9,286047005.6,N,0.0,0.0
1478521875.8,286047003.5,N,0.0,0.0
1478521895.6,286047003.6,N,0.0,0.0
1478521915.4,286047001.8,N,0.0,0.0
1478521935.3,286047006.0,N,0.0,0.0
1478521955.1,286047004.2,N,0.0,0.0
1478521975.9,286047001.4,N,0.0,0.0
1478521995.7,286047001.5,N,0.0,0.0
1478522015.5,286047001.8,N,0.0,0.0
1478522035.4,286047002.0,N,0.0,0.0
1478522055.2,286047002.1,N,0.0,0.0
1478522075.0,286047000.0,N,0.0,0.0
1478522075.9,286047000.0,N,0.0,0.0
1478522095.8,286046999.7,N,0.0,0.0
1478522115.6,286047008.0,N,0.0,0.0
1478522135.4,286047006.0,N,0.0,0.0
1478522155.3,286046993.8,N,0.0,0.0
1478522175.1,286047000.1,N,0.0,0.0
1478522195.9,286046998.4,N,0.0,0.0
1478522215.7,286047000.8,N,0.0,0.0
1478522235.5,286047000.5,N,0.0,0.0
1478522255.4,286047002.3,N,0.0,0.0
1478522275.2,286047000.6,N,0.0,0.0
1478522295.0,286047000.9,N,0.0,0.0
1478522295.9,286047000.9,N,0.0,0.0
1478522315.8,286047000.4,N,0.0,0.0
1478522335.6,286046998.2,N,0.0,0.0
1478522355.4,286047001.1,N,0.0,0.0
1478522375.3,286046999.0,N,0.0,0.0
1478522395.1,286046998.7,N,0.0,0.0
1478522415.9,286046998.8,N,0.0,0.0
1478522435.7,286047001.1,N,0.0,0.0
1478522455.5,286046999.1,N,0.0,0.0
1478522475.4,286047002.8,N,0.0,0.0
1478522495.2,286047000.3,N,0.0,0.0
1478522515.0,286046998.2,N,0.0,0.0
1478522515.9,286046998.2,N,0.0,0.0
1478522535.8,286046999.6,N,0.0,0.0
1478522555.6,286046998.9,N,0.0,0.0
1478522575.5,286046999.4,N,0.0,0.0
1478522595.3,286046999.0,N,0.0,0.0
1478522615.1,286046998.4,N,0.0,0.0
1478522635.9,286046998.1,N,0.0,0.0
1478522655.7,286046996.5,N,0.0,0.0
1478522675.5,286046996.7,N,0.0,0.0
1478522695.4,286046996.9,N,0.0,0.0
1478522715.2,286046996.7,N,0.0,0.0
1478522735.0,286046997.5,N,0.0,0.0
1478522735.9,286046997.5,N,0.0,0.0
1478522755.8,286046995.0,N,0.0,0.0
1478522775.6,286046994.9,N,0.0,0.0
1478522795.4,286046995.4,N,0.0,0.0
1478522815.3,286046995.1,N,0.0,0.0
1478522835.1,286046995.4,N,0.0,0.0
1478522855.9,286046998.0,N,0.0,0.0
1478522875.7,286046997.6,N,0.0,0.0
1478522895.5,286046996.1,N,0.0,0.0
1478522915.4,286046993.3,N,0.0,0.0
1478522935.2,286046996.0,N,0.0,0.0
1478522955.0,286046995.8,N,0.0,0.0
1478522955.9,286046995.8,N,0.0,0.0
1478522975.8,286046996.1,N,0.0,0.0
1478522995.6,286046996.3,N,0.0,0.0
1478523015.5,286046995.8,N,0.0,0.0
1478523035.3,286046995.6,N,0.0,0.0
1478523055.1,286046993.3,N,0.0,0.0
1478523075.9,286046997.5,N,0.0,0.0
1478523095.7,286046995.4,N,0.0,0.0
1478523115.5,286046995.5,N,0.0,0.0
1478523135.4,286046995.7,N,0.0,0.0
1478523155.2,286046996.0,N,0.0,0.0
1478523175.0,286046994.9,N,0.0,0.0
1478523175.9,286046994.9,N,0.0,0.0
1478523195.8,286046995.9,N,0.0,0.0
1478523215.6,286046996.4,N,0.0,0.0
1478523235.5,286046997.6,N,0.0,0.0
1478523255.3,286046997.8,N,0.0,0.0
1478523275.1,286046996.9,N,0.0,0.0
1478523295.9,286046995.5,N,0.0,0.0
1478523315.7,286046995.7,N,0.0,0.0
1478523335.5,286046996.3,N,0.0,0.0
1478523355.4,286046993.6,N,0.0,0.0
1478523375.2,286046994.0,N,0.0,0.0
1478523395.0,286046994.2,N,0.0,0.0
1478523396.0,286046994.2,N,0.0,0.0
1478523415.8,286046994.1,N,0.0,0.0
1478523435.6,286046996.2,N,0.0,0.0
1478523455.5,286046995.1,N,0.0,0.0
1478523475.3,286046995.0,N,0.0,0.0
1478523495.1,286046996.4,N,0.0,0.0
1478523515.9,286046996.4,N,0.0,0.0
1478523535.7,286046995.2,N,0.0,0.0
1478523555.5,286046995.0,N,0.0,0.0
1478523575.4,286046996.7,N,0.0,0.0
1478523595.2,286046997.2,N,0.0,0.0
